Location: Pedholt
(56.0260°N, 10.2097°E)
Time: 02:16:34
(UTC+00:00)

Transit 2A Rocket - Pass Details

Date: 29 July 2021
Orbit: 586 x 917 km, 66.7° (Epoch: 27 September)

Event Time Altitude Azimuth Distance (km) Brightness Sun altitude
Rises 22:52:29 0° 314° (NW) 3,212 9.1 -15.1°
Reaches altitude 10° 22:54:54 10° 307° (NW) 2,336 8.1 -15.2°
Maximum altitude 22:59:52 39° 240° (WSW) 1,226 5.9 -15.3°
Enters shadow 23:02:52 23° 187° (S) 1,749 6.3 -15.3°
Drops below altitude 10° 23:05:13 10° 174° (S) 2,512 - -15.3°
Sets 23:07:55 0° 167° (SSE) 3,482 - -15.4°
